Location: Ciula Mare
(45.6000°N, 22.8167°E)
Time: 09:58:55
(UTC+00:00)

YAOGAN 1 - Pass Details

Date: 03 February 2023
Orbit: 616 x 618 km, 97.8° (Epoch: 30 March)

Event Time Altitude Azimuth Distance (km) Brightness Sun altitude
Rises 16:28:29 0° 140° (SE) 2,881 5.7 -9.3°
Reaches altitude 10° 16:30:49 10° 131° (SE) 1,981 4.8 -9.7°
Maximum altitude 16:34:38 32° 68° (ENE) 1,074 3.3 -10.3°
Drops below altitude 10° 16:38:29 10° 6° (N) 1,996 5.0 -11.0°
Sets 16:40:51 0° 356° (N) 2,907 5.9 -11.4°
